Change the Weather History Date:

Wednesday, September 19, 2012

  Actual Average Record
Temperature  
Mean Temperature 79 °F -  
Max Temperature 90 °F 75 °F 93 °F (2002)
Min Temperature 68 °F 59 °F 59 °F (1999)
Cooling Degree Days 14    
Growing Degree Days 29 (Base 50)    
Moisture  
Dew Point 62 °F    
Average Humidity 65    
Maximum Humidity 94    
Minimum Humidity 33    
Precipitation  
Precipitation 0.00 in 0.05 in - ()
Sea Level Pressure  
Sea Level Pressure 29.91 in    
Wind  
Wind Speed 6 mph ()    
Max Wind Speed 14 mph    
Max Gust Speed -    
Visibility 7.1 miles    
Events      
Averages and records for this station are not official NWS values.
T = Trace of Precipitation, MM = Missing Value Source: Averaged Metar Reports

Daily Weather History Graph

Daily Weather History Graph

Search for Another Location

Airport or City:

Trip Planner

Search our weather history database for the weather conditions in past years. The results will help you decide how hot, cold, wet, or windy it might be!

Date:

Astronomy

Sep. 19, 2012 Rise Set
Actual Time 8:03 AM CEST 8:18 PM CEST
Civil Twilight 7:37 AM CEST 8:44 PM CEST
Nautical Twilight 7:07 AM CEST 9:15 PM CEST
Astronomical Twilight 6:36 AM CEST 9:45 PM CEST
Moon 11:49 AM CEST (9/19) 10:25 PM CEST (9/19)
Length of Visible Light 13h 07m
Length of Day
12h 15m
Waxing Crescent, 14% of the Moon is Illuminated
Sep 19
Waxing Crescent
Sep 22
First Quarter
Sep 30
Full
Oct 8
Last Quarter
Oct 15
New

Hourly Weather History & Observations

Time (CEST) Temp. Heat Index Dew Point Humidity Pressure Visibility Wind Dir Wind Speed Gust Speed Precip Events Conditions
12:00 AM 71.6 °F - 68.0 °F 88% 29.92 in - Variable 2.3 mph - N/A   Clear
12:30 AM 71.6 °F - 68.0 °F 88% 29.95 in - NNE 1.2 mph - N/A   Clear
1:00 AM 71.6 °F - 66.2 °F 83% 29.95 in - WNW 3.5 mph - N/A   Clear
1:30 AM 69.8 °F - 66.2 °F 88% 29.92 in - NW 2.3 mph - N/A   Clear
2:00 AM 72 °F - 67 °F 80% 29.94 in 6 mi WNW 4.6 mph - -   Overcast
2:00 AM 69.8 °F - 66.2 °F 88% 29.92 in 6.2 mi WNW 4.6 mph - N/A   Partly Cloudy
2:30 AM 69.8 °F - 66.2 °F 88% 29.92 in - WNW 6.9 mph - N/A   Clear
3:00 AM 69.8 °F - 66.2 °F 88% 29.92 in - NW 4.6 mph - N/A   Clear
3:30 AM 69.8 °F - 64.4 °F 83% 29.92 in - WNW 5.8 mph - N/A   Clear
4:00 AM 69.8 °F - 66.2 °F 88% 29.92 in - WNW 8.1 mph - N/A   Clear
4:30 AM 69.8 °F - 62.6 °F 78% 29.92 in - Variable 1.2 mph - N/A   Clear
5:00 AM 69.8 °F - 62.6 °F 78% 29.89 in - WNW 4.6 mph - N/A   Clear
5:30 AM 68.0 °F - 60.8 °F 78% 29.89 in - WNW 8.1 mph - N/A   Clear
6:00 AM 68.0 °F - 60.8 °F 78% 29.89 in - WNW 9.2 mph - N/A   Clear
6:30 AM 68.0 °F - 57.2 °F 68% 29.89 in - WNW 9.2 mph - N/A   Clear
7:00 AM 68.0 °F - 55.4 °F 64% 29.89 in - WNW 6.9 mph - N/A   Clear
7:30 AM 66.2 °F - 55.4 °F 68% 29.89 in - WNW 11.5 mph - N/A   Clear
8:00 AM 69 °F - 56 °F 53% 29.90 in 19 mi WNW 10.4 mph - -   Clear
8:00 AM 68.0 °F - 53.6 °F 60% 29.89 in - WNW 10.4 mph - N/A   Clear
8:30 AM 75.2 °F - 51.8 °F 44% 29.89 in - West 12.7 mph - N/A   Clear
9:00 AM 75.2 °F - 51.8 °F 44% 29.89 in - West 10.4 mph - N/A   Clear
9:30 AM 78.8 °F - 53.6 °F 42% 29.89 in - West 13.8 mph - N/A   Clear
10:00 AM 78.8 °F - 53.6 °F 42% 29.92 in - West 9.2 mph - N/A   Clear
10:30 AM 78.8 °F - 53.6 °F 42% 29.92 in 6.2 mi West 10.4 mph - N/A   Partly Cloudy
11:00 AM 78.8 °F - 55.4 °F 44% 29.92 in 6.2 mi West 10.4 mph - N/A   Partly Cloudy
11:30 AM 80.6 °F 80.5 °F 55.4 °F 42% 29.92 in 6.2 mi West 12.7 mph - N/A   Partly Cloudy
12:00 PM 82.4 °F 81.7 °F 55.4 °F 39% 29.92 in 6.2 mi West 11.5 mph - N/A   Partly Cloudy
12:30 PM 84.2 °F 83.0 °F 55.4 °F 37% 29.92 in 6.2 mi West 10.4 mph - N/A   Partly Cloudy
1:00 PM 86.0 °F 84.5 °F 55.4 °F 35% 29.92 in 6.2 mi West 5.8 mph - N/A   Partly Cloudy
1:30 PM 87.8 °F 86.1 °F 55.4 °F 33% 29.92 in 6.2 mi SW 2.3 mph - N/A   Partly Cloudy
2:00 PM 88 °F - 64 °F 35% 29.92 in 25 mi SSE 5.8 mph - -   Scattered Clouds
2:00 PM 86.0 °F 84.5 °F 55.4 °F 35% 29.92 in 6.2 mi SSE 5.8 mph - N/A   Partly Cloudy
2:30 PM 86.0 °F 86.6 °F 62.6 °F 45% 29.89 in 6.2 mi SSE 6.9 mph - N/A   Partly Cloudy
3:00 PM 86.0 °F 86.1 °F 60.8 °F 43% 29.89 in 6.2 mi SSE 9.2 mph - N/A   Partly Cloudy
3:30 PM 87.8 °F 87.6 °F 60.8 °F 40% 29.89 in 6.2 mi SSE 6.9 mph - N/A   Partly Cloudy
4:00 PM 86.0 °F 86.1 °F 60.8 °F 43% 29.86 in 6.2 mi SSE 8.1 mph - N/A   Partly Cloudy
4:30 PM 87.8 °F 87.6 °F 60.8 °F 40% 29.86 in 6.2 mi SSE 8.1 mph - N/A   Partly Cloudy
5:30 PM 87.8 °F 87.6 °F 60.8 °F 40% 29.89 in 6.2 mi ESE 9.2 mph - N/A   Partly Cloudy
6:00 PM 84.2 °F 85.6 °F 64.4 °F 51% 29.89 in 6.2 mi East 9.2 mph - N/A   Partly Cloudy
6:30 PM 78.8 °F - 66.2 °F 65% 29.89 in 6.2 mi East 11.5 mph - N/A   Partly Cloudy
7:00 PM 77.0 °F - 68.0 °F 74% 29.89 in 6.2 mi East 11.5 mph - N/A   Partly Cloudy
7:30 PM 73.4 °F - 68.0 °F 83% 29.92 in 6.2 mi East 9.2 mph - N/A   Partly Cloudy
8:00 PM 75 °F - 73 °F 90% 29.93 in 19 mi ESE 6.9 mph - -   Partly Cloudy
8:30 PM 73.4 °F - 69.8 °F 88% 29.92 in 6.2 mi ESE 3.5 mph - N/A   Partly Cloudy
9:00 PM 71.6 °F - 69.8 °F 94% 29.92 in 6.2 mi ESE 5.8 mph - N/A   Partly Cloudy
9:30 PM 71.6 °F - 69.8 °F 94% 29.95 in - SE 5.8 mph - N/A   Clear
10:00 PM 71.6 °F - 69.8 °F 94% 29.98 in 6.2 mi ESE 5.8 mph - N/A   Scattered Clouds
10:30 PM 71.6 °F - 69.8 °F 94% 29.98 in 6.2 mi ESE 5.8 mph - N/A   Scattered Clouds
11:00 PM 71.6 °F - 69.8 °F 94% 29.98 in 6.2 mi ESE 5.8 mph - N/A   Partly Cloudy
11:30 PM 71.6 °F - 69.8 °F 94% 29.98 in 6.2 mi East 4.6 mph - N/A   Partly Cloudy